Regional Weather Roundup
Issued by NWS

Home | Current Version | Previous Version | Text Only | Print | Product List | Glossary On
Versions: 1 2 3 4 5 6 7 8 9 10 11 12 13 14 15 16 17 18 19 20 21 22 23 24 25 26 27 28 29 30 31 32 33 34 35 36 37 38 39 40 41 42 43 44 45 46 47 48 49 50
000
ASUS45 KREV 311510
RWRNV
NEVADA REGIONAL WEATHER ROUNDUP
NATIONAL WEATHER SERVICE RENO NV
800 AM PDT FRI JUL 31 2015

NOTE: "FAIR" INDICATES FEW OR NO CLOUDS BELOW 12,000 FEET WITH NO
SIGNIFICANT WEATHER AND/OR OBSTRUCTIONS TO VISIBILITY.

NVZ001-003-004-311600-
WESTERN NEVADA

CITY           SKY/WX    TMP DP  RH WIND       PRES   REMARKS
RENO           CLOUDY    74  39  28 VRB5      30.23S
CARSON CITY    FAIR      68  41  37 CALM      30.25S
MINDEN         FAIR      66  48  52 CALM      30.26R
SLIDE MTN        N/A     61  34  36 SE3         N/A
PYRAMID LAKE     N/A     81 N/A N/A CALM        N/A
FALLON         CLOUDY    75  43  31 CALM      30.19R
LOVELOCK       PTSUNNY   64  30  27 SE3       30.19R
HAWTHORNE      SUNNY     75  41  29 CALM      30.22R
$$

NVZ002-CAZ072-073-311600-
NORTHERN AND CENTRAL SIERRA

CITY           SKY/WX    TMP DP  RH WIND       PRES   REMARKS
S. LAKE TAHOE  CLOUDY    67  44  43 CALM      30.37R
TRUCKEE        PTSUNNY   57  41  54 NE5       30.37S
SQUAW VLY 8000   N/A     64  37  36 NW1         N/A
SUSANVILLE     SUNNY     68  37  32 CALM      30.22R
BLUE CANYON    CLOUDY    73  40  30 E3        30.31S
MAMMOTH LAKES  CLOUDY    61  48  63 CALM      30.45F
BRIDGEPORT     CLOUDY    60  46  59 SW3       30.39S
$$

NVZ030-031-036-311600-
NORTHERN NEVADA

CITY           SKY/WX    TMP DP  RH WIND       PRES   REMARKS
ELKO           PTSUNNY   63  31  30 E5        30.33R
WINNEMUCCA     MOSUNNY   73  28  18 NE12      30.25R
WENDOVER       SUNNY     75  32  20 CALM      30.25S
$$

NVZ035-037-311600-
CENTRAL NEVADA

CITY           SKY/WX    TMP DP  RH WIND       PRES   REMARKS
ELY            MOSUNNY   67  23  19 CALM      30.39S
EUREKA           N/A     72  23  16 N10       30.35S
$$

NVZ013-014-311600-
SOUTH CENTRAL NEVADA

CITY           SKY/WX    TMP DP  RH WIND       PRES   REMARKS
TONOPAH        CLOUDY    71  33  24 N8        30.33R
$$

NVZ017-020-022-311600-
SOUTHERN NEVADA

CITY           SKY/WX    TMP DP  RH WIND       PRES   REMARKS
LAS VEGAS      PTSUNNY   91  52  26 N5        30.01R
N. LAS VEGAS   PTSUNNY   92  53  26 NE3       30.04S
NELLIS AFB     MOSUNNY   88  55  32 NE3       30.02R
HENDERSON      PTSUNNY   87  56  34 SE3       30.09R
MERCURY        PTSUNNY   82  52  35 CALM      30.12R
$$



USA.gov is the U.S. government's official web portal to all federal, state and local government web resources and services.